Voltar ao catálogo

STARLINK-37147

AtivoComunicaçõesSSO
NORAD 68295·PAYLOAD·🇺🇸 United States

Lançado Mar 20, 2026 de Vandenberg Space Force Base

Loading…

Próximas Passagens (próximas 24 horas)

TLE

AtualizadoSource: CelesTrak SupGP

Época: Sep 15, 2026, 04:09 UTC

1 68295C 26057B   26258.17340278  .00000786  00000+0  24393-4 0  2588
2 68295  97.2855  23.6652 0000988  90.7999  84.1232 15.33444891    13

Acompanhe STARLINK-37147 em tempo real com AllMySat

Download on the App Store